Location: St Paul
(33.9360°N, 83.4200°W)
Time: 10:05:17
(UTC-05:00)

ATLAS 3B CENTAUR R/B - Pass Details

Date: 06 October 2017
Orbit: 222 x 5695 km, 28.1° (Epoch: 16 December)

Event Time Altitude Azimuth Distance (km) Brightness Sun altitude
Rises 20:37:03 0° 266° (W) 3,348 6.9 -18.7°
Reaches altitude 10° 20:38:50 10° 261° (W) 2,761 6.0 -19.1°
Maximum altitude 20:45:38 58° 183° (S) 2,000 4.0 -20.5°
Enters shadow 20:55:38 26° 118° (ESE) 4,602 5.4 -22.5°
